Погода в Самаре

Погода в Самаре : погода сейчас, прогноз погоды и архив. Всё, что Вы хотите узнать о погоде в Самаре!

Поиск расширенной информации на нашем сайте:

Полезная информация:

Другие новости

Новости СМИ2

Главная страница сайта

Новости сайта

03.07.2017

Напоминаем, что на нашем специализированном сайте Метеоцентр.Азия вы можете получить высокодетализированные автоматические прогнозы погоды по пунктам России, СНГ и мира в авиационном формате (включающие направление и скорость ветра, видимость, явления погоды, количество и форму облачности, нижнюю и верхнюю границу облачности).

Рекомендуем:

Погода в Самаре - сегодня

Время (UTC), дата Ветер
(°,м/с) 
Видим.   Явления Облачность Т
(°С)
Тd
(°С)
f(%) Тe
(°С)
Pmin
(гПа)
dP
(гПа)
Po
(мм)
O2
(г/м3)
Тmin Tmax R s Состояние
почвы
09 15.09.19 270 (З) 10 км  в посл. час ливневой дождь  10/8 300 м средняя 
[St|Ac trans]
+13.3 +10.6 84 +15  1013.9  748  285           
12 15.09.19 290 (З) 10 км  {ливн. осадки}  8/6 600 м верхняя 
[Cu med, cong|Ci fib]
+16.3 +8.5 60 +18  1012.7  -1  747  283           
15 15.09.19 320 (СЗ) 10 км    8/4 600 м верхняя 
[Cu Sc|Ci fib]
+15 +7 59 +16  1012.6  -0.2  747  284    +16.6     
18 15.09.19 тихо ()   10 км    4/4 600 м 
[Sc]
+11.4 +7.3 76 +11  1012.8  0.1  747  288           
21 15.09.19 260 (З) 10 км    3/3 600 м 
[Sc]
+10 +7.5 84 +11  1012.6  -0.2  747  289           
00 16.09.19 260 (З) 10 км    8/0 верхняя 
[Ci fib]
+9.3 +7 86 +9  1012.6  0.1  747  290           
03 16.09.19 250 (З) 10 км    10/0 средняя 
[Ac trans]
+8.9 +6.3 84 +9  1011.8  -0.8  746  290  +8.3        влажная 
06 16.09.19 190 (Ю) 10 км    8/0 средняя, верхняя 
[Ac trans|Ci ing]
+12.3 +5.7 64 +13  1010  -1.6  745  286           
09 16.09.19 230 (ЮЗ) 3{12}  10 км  слаб. ливневой дождь  10/6 600 м кучево-дожд., средняя 
[Cb cap|Ac trans]
+12.3 +6.3 67 +12  1008.9  -1  744  286           
12 16.09.19 180 (Ю) 10 км  слаб. ливневой дождь  10/8 600 м кучево-дожд., средняя 
[Cb cap|Ac trans]
+11.1 +8.4 83 +11  1006.8  -2.1  743  286           
15 16.09.19 180 (Ю) 10 км  в посл. час ливневой дождь  10/6 600 м кучево-дожд., средняя 
[Cb cap|Ac trans]
+12.3 +8.3 77 +14  1004.8  -2  741  284    +14.2     
18 16.09.19 210 (ЮЗ) 2{10}  10 км  {ливн. осадки}  10/6 600 м средняя 
[Sc|Ac trans]
+15.5 +6.1 53 +16  1003.1  -1.4  740  281           
21 16.09.19 250 (З) 2{10}  10 км  {ливн. осадки}  8/0 средняя, верхняя 
[Ac trans|Ci fib]
+13.7 +7.7 67 +14  1003  -0.2  740  283           
00 17.09.19 240 (ЮЗ) 10 км  {ливн. осадки}  ясно 
+12.4 +7.5 72 +13  1002.9  -0.2  740  284           
03 17.09.19 240 (ЮЗ) 10 км    6/0 верхняя 
[Ci fib]
+11.1 +7.1 76 +11  1003.4  0.4  740  285  +11.1    0.0    влажная 
06 17.09.19 260 (З) 10 км    4/0 верхняя 
[Ci fib]
+14.7 +8 64 +15  1003.6  0.4  740  282           
09 17.09.19 240 (ЮЗ) 10 км    9/9 600 м 
[Sc diur, vesp]
+18.2 +6.2 45 +19  1002.2  -1.2  740  278           
12 17.09.19 250 (З) 3{10}  10 км    10/8 600 м средняя 
[Sc diur, vesp|Ac trans]
+18.8 +6.4 44 +19  1001.6  -0.6  739  278           
15 17.09.19 тихо ()   10 км    10/3 600 м верхняя 
[Sc|Ci fib]
+15.8 +6.4 54 +16  1001.3  -0.5  739  280    +19.5       
18 17.09.19 180 (Ю) 10 км    10/3 600 м верхняя 
[Sc|Ci fib]
+15.8 +6.7 55 +17  1001  -0.3  739  280           
21 17.09.19 220 (ЮЗ) 10 км    10/8 600 м средняя 
[Sc|Ac trans]
+14.8 +7.7 62 +15  1001  739  281           
00 18.09.19 260 (З) 10 км  {ливн. осадки}  4/4 600 м 
[Sc]
+12.9 +10.2 84 +16  1001.1  738  282           
03 18.09.19 270 (З) 10 км    3/3 600 м 
[Sc]
+10.2 +8.6 90 +11  1002.2  739  286  +9.2    0.3    влажная 
06 18.09.19 250 (З) 10 км    3/0 верхняя 
[Ci fib]
+14.4 +6.7 60 +15  1003.1  1.1  740  282           
09 18.09.19 250 (З) 10 км    9/5 600 м верхняя 
[Cu med, cong|Ci fib]
+16.3 +2 38 +16  1003.5  0.4  740  281           
Время (UTC), дата Ветер
(°,м/с) 
Видим.   Явления Облачность Т
(°С)
Тd
(°С)
f(%) Тe
(°С)
Pmin
(гПа)
dP
(гПа)
Po
(мм)
O2
(г/м3)
Тmin Tmax R s Состояние
почвы

Для получения пояснительной информации подведите курсор к названию столбца.

ПОГОДА в Самаре - архив

Всё, что Вы хотите узнать о погоде в Самаре - удобно и подробно!

Выберите нужную дату (начиная с 1 января 2018* года) и нажмите кнопку "Найти".
Будут отображены архивные сводки погоды по пункту Самара, начиная с указанной даты.


Отображать данные в формате CSV (для использования в таблицах Excel)


Внимание! Наш архив погоды предназначен исключительно для личного некоммерческого использования в познавательных целях. Если Вам необходимы официальные справки о состоянии погоды (для производственных, юридических, коммерческих и т.п. целей), обращайтесь в органы Росгидромета.

*Примечание: данная дата относится к архиву по метеостанциям СССР (Россия, СНГ, Балтия).
Архив по метеостанциям Зарубежной Европы и Азии (кроме Китая) хранится 10 дней, по другим регионам земного шара (Китай, Африка, Америка, Австралия, Океания) - 1 день.

Самара - район местоположения метеостанции


Название, широта, долгота, высота метеостанции:
Самара (обсерватория) 53.3°ш. 50.1°д. 130 м над ур. моря [Российская Федерация]

Дополнительная информация

В oтличие oт бoльшинства пoгoдных сайтoв мы публикуем пoдрoбную метеoинфoрмацию в детальнoм прoфессиoнальнoм фoрмате.

Характеристики температуры и влажнoсти вoздуха измеряются на высoте 2 м в тени вдали oт зданий и деревьев.
Скoрoсть ветра измеряется на высoте 10 м (на урoвне рoста челoвека скoрoсть ветра ниже в 1.5-2 раза). Если метеoстанция нахoдится в гoрoде или в лесу, тo скoрoсть ветра занижена на 2-4 м/с пo сравнению с oткрытым местoм. Скoрoсть ветра над акватoриями крупных рек и oзёр, а также на вершинах хoлмoв на 2-5 м/с выше, чем в oбычных услoвиях.
Атмoсфернoе давление в разных тoчках местнoсти мoжет значительнo oтличаться oт давления на метеoстанции, в зависимoсти oт услoвий рельефа (при пoдъёме на 10 м давление пoнижается примернo на 1 мм рт.ст.).